DW7554 Weather Reports


time (UTC)temp
C
wind
direction
speed
KPH
gust
KPH
rain 1hr
cm
rain 24hr
cm
rain mn
cm
humidity
%
barometer
mb
20260507181522 9 273 1.6 6.4 0.00 0.30 0.08 75 1008.8
20260507180029 10 290 4.8 9.7 0.00 0.30 0.08 72 1008.8
20260507174520 10 284 4.8 12.9 0.00 0.30 0.08 71 1008.5
20260507173029 10 266 14.5 19.3 0.00 0.30 0.08 70 1008.4
20260507171532 10 293 9.7 14.5 0.00 0.30 0.08 70 1008.2
20260507170016 10 288 4.8 9.7 0.00 0.30 0.08 68 1008.1
20260507164517 11 284 4.8 9.7 0.00 0.33 0.08 68 1008.1
20260507163015 11 287 4.8 9.7 0.00 0.33 0.08 71 1008.0
20260507161513 10 236 6.4 9.7 0.00 0.33 0.08 70 1007.8
20260507160011 10 290 8.0 16.1 0.00 0.36 0.08 71 1007.8
20260507154511 10 288 8.0 12.9 0.00 0.36 0.08 76 1007.6
20260507153010 10 296 9.7 20.9 0.00 0.36 0.08 75 1007.6
20260507151509 11 238 8.0 24.1 0.00 0.36 0.08 66 1007.4
20260507150007 13 248 11.3 24.1 0.00 0.43 0.08 56 1006.7
20260507144507 15 256 11.3 17.7 0.00 0.43 0.08 47 1006.2
20260507143015 15 236 9.7 17.7 0.00 0.43 0.08 46 1006.2
20260507141504 15 287 11.3 25.7 0.00 0.43 0.08 47 1006.2
20260507140005 15 295 9.7 22.5 0.00 0.48 0.08 48 1006.0
20260507134507 15 273 6.4 17.7 0.00 0.48 0.08 47 1006.1
20260507133003 15 281 9.7 20.9 0.00 0.48 0.08 48 1006.2
20260507131503 14 291 12.9 25.7 0.00 0.48 0.08 48 1006.3
20260507130001 15 290 12.9 24.1 0.00 0.56 0.08 47 1006.2
20260507124504 15 276 9.7 16.1 0.00 0.56 0.08 47 1006.1
20260507123101 14 321 8.0 20.9 0.00 0.56 0.08 47 1006.1
20260507121605 15 274 12.9 22.5 0.00 0.56 0.08 47 1006.3
20260507120104 14 232 8.0 14.5 0.00 0.56 0.08 47 1006.4
20260507114615 15 285 6.4 27.4 0.00 0.56 0.08 45 1006.4
20260507113059 15 277 6.4 22.5 0.00 0.56 0.08 47 1006.6
20260507111557 15 208 6.4 19.3 0.00 0.56 0.08 49 1006.9
20260507104554 15 249 11.3 19.3 0.00 0.56 0.08 50 1007.0
20260507103051 14 271 11.3 20.9 0.00 0.56 0.08 56 1007.0
20260507101557 13 259 8.0 20.9 0.00 0.56 0.08 55 1007.3
20260507100048 13 298 14.5 25.7 0.00 0.56 0.08 57 1007.3
20260507094553 13 232 8.0 14.5 0.00 0.56 0.08 56 1007.4
20260507093045 13 284 9.7 19.3 0.00 0.56 0.08 59 1007.3
20260507091545 13 283 8.0 19.3 0.00 0.56 0.08 58 1007.2
20260507090044 12 285 8.0 19.3 0.00 0.56 0.08 58 1007.2
20260507084538 12 266 9.7 19.3 0.00 0.56 0.08 60 1007.1
20260507083035 12 270 8.0 16.1 0.00 0.56 0.08 61 1007.0
20260507081541 11 263 9.7 19.3 0.00 0.56 0.08 61 1007.0
20260507080030 11 266 8.0 17.7 0.00 0.56 0.08 68 1007.0
20260507074531 11 291 11.3 19.3 0.00 0.56 0.08 65 1006.9
20260507073025 10 260 8.0 14.5 0.00 0.56 0.08 75 1006.9
20260507071518 10 248 6.4 12.9 0.00 0.56 0.08 85 1006.8
20260507070015 9 273 6.4 9.7 0.00 0.56 0.08 90 1006.8
20260507064514 8 245 6.4 9.7 0.00 0.56 0.08 93 1006.7
20260507063013 8 263 6.4 9.7 0.00 0.56 0.08 93 1006.8
20260507061510 8 101 0.0 1.6 0.00 0.56 0.08 96 1006.7
20260507060009 7 75 0.0 4.8 0.00 0.56 0.08 96 1006.6
20260507054503 7 101 1.6 3.2 0.00 0.56 0.08 96 1006.6
20260507053005 7 83 1.6 3.2 0.00 0.56 0.08 97 1006.5
20260507051502 6 96 1.6 3.2 0.00 0.56 0.08 97 1006.5
20260507044602 5 85 0.0 1.6 0.00 0.56 0.08 97 1006.3
20260507043057 -17 0.0 0.0 0.00 0.56 0.08 1006.2
20260507041555 -17 0.0 0.0 0.00 0.56 0.08 1006.1
20260507040048 -17 0.0 0.0 0.00 0.56 0.08 1006.1
20260507034557 -17 0.0 0.0 0.00 0.56 0.08 1006.1
20260507033057 5 124 0.0 1.6 0.00 0.56 0.08 100 1006.0
20260507031538 6 123 1.6 3.2 0.00 0.56 0.08 96 1006.0
20260507030035 6 127 0.0 3.2 0.00 0.56 0.08 96 1006.0
20260507024534 6 234 0.0 0.0 0.00 0.56 0.08 96 1005.8
20260507023032 6 235 0.0 0.0 0.00 0.56 0.08 96 1005.7
20260507021529 6 235 0.0 1.6 0.00 0.56 0.08 96 1005.8
20260507020032 7 221 0.0 3.2 0.00 0.56 0.08 96 1005.7
20260507014528 7 221 0.0 3.2 0.00 0.56 0.08 96 1005.6
20260507013026 7 195 0.0 1.6 0.00 0.56 0.08 96 1005.4
20260507011526 7 195 0.0 1.6 0.00 0.56 0.08 96 1005.5
20260507010032 7 235 0.0 4.8 0.03 0.56 0.08 96 1005.6
20260507004525 7 58 0.0 3.2 0.05 0.56 0.08 96 1005.4
20260507003023 7 266 0.0 4.8 0.05 0.56 0.08 96 1005.6
20260507001523 7 242 1.6 12.9 0.05 0.56 0.08 96 1005.7
20260507000025 7 276 1.6 12.9 0.05 0.53 0.05 96 1005.6
20260506234540 7 71 0.0 12.9 0.05 0.51 0.05 96 1005.9
20260506233020 7 74 0.0 12.9 0.03 0.51 0.03 96 1005.7
20260506231519 7 291 0.0 12.9 0.03 0.51 0.03 96 1005.7
20260506230018 7 43 0.0 12.9 0.00 0.48 0.00 96 1005.6
20260506224525 7 43 0.0 12.9 0.00 0.48 0.00 95 1005.4
20260506223014 7 63 0.0 12.9 0.03 0.48 0.00 95 1005.2
20260506221514 7 242 0.0 12.9 0.05 0.48 0.00 95 1005.1
20260506220026 7 296 3.2 12.9 0.05 0.48 0.48 95 1005.1
20260506214509 7 61 0.0 12.9 0.08 0.48 0.48 95 1005.0
20260506213007 8 83 0.0 12.9 0.05 0.46 0.46 94 1005.1
20260506211511 8 239 1.6 12.9 0.05 0.43 0.43 94 1005.2
20260506210005 8 248 0.0 12.9 0.03 0.43 0.43 94 1005.0
20260506204505 8 297 0.0 12.9 0.03 0.41 0.41 94 1004.8
20260506203004 8 271 1.6 12.9 0.03 0.41 0.41 94 1004.8
20260506201503 8 275 1.6 12.9 0.05 0.41 0.41 92 1004.6
20260506200004 8 299 1.6 12.9 0.05 0.41 0.41 93 1004.6
20260506194502 8 94 1.6 12.9 0.05 0.38 0.38 94 1004.5
20260506193001 8 256 0.0 12.9 0.05 0.38 0.38 94 1004.3
20260506191501 9 281 3.2 12.9 0.05 0.36 0.36 93 1004.2
20260506190003 9 294 6.4 12.9 0.10 0.36 0.36 93 1004.0
20260506184603 9 290 6.4 12.9 0.08 0.33 0.33 93 1003.7
20260506183103 9 295 6.4 11.3 0.05 0.33 0.33 93 1003.4